Location: Newark
(44.6768°N, 22.5302°E)
Time: 04:37:04
(UTC+00:00)

Envisat - Visible Passes

Search period start: 25 January 2022 00:00
Search period end: 04 February 2022 00:00
Orbit: 764 x 766 km, 98.2° (Epoch: 24 January)

Date Brightness Start Highest point End Pass type
(mag) Time Alt. Az. Time Alt. Az. Time Alt. Az.
25 Jan 3.2 03:18:02 10° NNE 03:23:07 68° ESE 03:28:10 10° S visible
25 Jan 4.4 04:58:18 10° NNW 05:01:35 18° WNW 05:04:51 10° W visible
26 Jan 4.6 02:41:33 10° NNE 02:46:05 32° E 02:50:35 10° SSE visible
26 Jan 3.6 04:20:32 10° N 04:25:05 34° WNW 04:29:38 10° SW visible
27 Jan 5.7 02:06:00 10° NE 02:08:51 15° E 02:11:40 10° ESE visible
27 Jan 2.8 03:43:18 10° N 03:48:23 72° WNW 03:53:26 10° SSW visible
28 Jan 3.6 03:06:30 10° NNE 03:11:30 54° E 03:16:27 10° S visible
28 Jan 4.1 04:46:21 10° NNW 04:50:07 21° WNW 04:53:54 10° WSW visible
28 Jan 6.2 16:05:15 10° WSW 16:07:21 12° W 16:09:27 10° WNW visible
29 Jan 5.0 02:30:13 10° NE 02:34:24 25° E 02:38:33 10° SSE visible
29 Jan 3.3 04:08:47 10° N 04:13:34 42° WNW 04:18:19 10° SW visible
30 Jan 6.0 01:55:27 10° ENE 01:57:05 11° E 01:58:45 10° ESE visible
30 Jan 2.9 03:31:41 10° NNE 03:36:49 89° WNW 03:41:53 10° SSW visible
30 Jan 4.6 05:12:41 10° NNW 05:15:04 13° WNW 05:17:26 10° W visible
31 Jan 4.1 02:55:01 10° NNE 02:59:51 42° E 03:04:39 10° S visible
31 Jan 3.9 04:34:28 10° N 04:38:39 26° WNW 04:42:49 10° WSW visible
01 Feb 5.3 02:18:59 10° NE 02:22:42 20° E 02:26:24 10° SE visible
01 Feb 3.0 03:57:04 10° N 04:02:01 53° WNW 04:06:57 10° SSW visible
02 Feb 3.1 03:20:06 10° NNE 03:25:13 73° ESE 03:30:16 10° S visible
02 Feb 4.4 05:00:31 10° NNW 05:03:38 17° WNW 05:06:44 10° W visible
03 Feb 4.5 02:43:35 10° NNE 02:48:12 34° E 02:52:46 10° SSE visible
03 Feb 3.6 04:22:39 10° N 04:27:09 32° WNW 04:31:37 10° SW visible
